Location: Hauppauge
(40.8260°N, 73.2030°W)
Time: 02:35:48
(UTC-04:00)

Daily predictions for brighter satellites

Satellite Brightness Start Highest point End
(mag) Time Altitude Azimuth Time Altitude Azimuth Time Altitude Azimuth
Cosmos 2333 Rocket 3.8 00:07:43 30° NW 00:07:43 30° NW 00:12:33 10° N
COSMOS 2455 3.9 00:02:17 10° NNW 00:06:25 42° N 00:06:25 42° N
Terra 4.5 00:12:27 13° WNW 00:12:27 13° WNW 00:13:23 10° NW
Cosmos 2237 Rocket 3.8 00:27:23 29° NW 00:27:23 29° NW 00:31:29 10° N
Cosmos 2369 Rocket 4.1 00:25:10 10° N 00:28:53 23° NE 00:28:53 23° NE
Mayak 1.8 01:11:20 10° N 01:11:52 13° N 01:11:52 13° N
CENTAUR R/B 4.1 01:12:44 10° NW 01:17:32 34° WNW 01:17:32 34° WNW
USA 215 3.9 01:31:04 50° NNW 01:31:04 50° NNW 01:35:46 10° NW
SL-16 R/B 4.2 01:35:36 21° NW 01:35:36 21° NW 01:39:12 10° N
ADEOS Rocket 4.5 01:39:12 10° NE 01:42:16 25° ENE 01:42:16 25° ENE
SL-16 R/B 4.4 01:48:13 18° E 01:50:32 23° ENE 01:55:11 10° NNE
Cosmos 1943 Rocket 3.5 01:49:08 10° NNW 01:52:18 34° N 01:52:18 34° N
CZ-2D R/B 4.2 02:02:48 10° NE 02:05:56 18° E 02:05:56 18° E
Cosmos 2369 Rocket 4.0 02:08:33 10° NNW 02:10:38 23° NW 02:10:38 23° NW
Cosmos 1943 4.4 02:26:52 36° NNW 02:26:52 36° NNW 02:30:53 10° N
Cosmos 2098 Rocket 4.0 02:52:43 63° NNE 02:52:43 63° NNE 02:56:49 10° N
Cosmos 2285 Rocket 4.4 02:58:36 52° SE 02:59:14 54° ESE 03:05:27 10° NNE
Cosmos 1125 Rocket 4.3 02:56:36 10° NNW 03:00:09 44° NNW 03:00:09 44° NNW
Lacrosse 5 4.2 03:00:54 10° NNW 03:04:52 22° NNE 03:08:49 10° ENE
Sich 1 4.4 03:04:23 10° N 03:08:23 34° ENE 03:08:38 33° E
USA 229 DEB 3.8 03:01:20 10° NW 03:08:34 85° ENE 03:15:54 10° SE
USA 229 3.8 03:01:27 10° NNW 03:08:40 84° ENE 03:16:00 10° SE
NPP 4.1 03:04:45 10° N 03:09:18 53° NW 03:09:18 53° NW
IRS-1C 4.2 03:04:50 10° NNE 03:09:39 71° NNW 03:09:39 71° NNW
BREEZE M DEB (TANK) 3.4 03:10:46 51° ENE 03:10:46 51° ENE 03:17:29 10° ESE
COSMOS 2406 3.0 03:25:16 78° W 03:25:25 78° WNW 03:31:09 10° NNE
Cosmos 2123 Rocket 3.9 03:19:52 10° NNW 03:26:05 67° W 03:26:21 67° WSW
Cosmos 1821 Rocket 4.5 03:26:21 43° WNW 03:26:21 43° WNW 03:32:02 10° N
Resurs 1-4 Rocket 2.0 03:24:15 10° N 03:29:30 76° WNW 03:29:31 76° WNW
ADEOS Rocket 3.6 03:24:36 10° N 03:29:13 35° WNW 03:29:13 35° WNW
SL-16 R/B 2.5 03:33:18 60° WSW 03:33:39 61° WSW 03:39:48 10° NNW
Cosmos 1934 Rocket 4.3 03:37:07 45° W 03:37:12 45° WNW 03:43:01 10° N
Cosmos 1633 Rocket 3.4 03:35:32 10° N 03:39:52 61° E 03:40:28 55° ESE
Cosmos 2228 Rocket 4.3 03:39:27 29° SE 03:40:55 38° E 03:45:01 10° NNE
ARIANE 5 R/B 2.4 03:36:18 10° N 03:41:31 71° WNW 03:41:55 67° WSW
NOSS 3-1 (C) 4.2 03:34:37 10° NNW 03:42:14 74° NE 03:50:38 10° SE
Cosmos 1300 3.2 03:43:27 59° ENE 03:43:27 59° ENE 03:46:54 10° NNE
CZ-2D R/B 2.2 03:41:39 10° N 03:46:53 54° WNW 03:47:15 53° W
Cosmos 1605 Rocket 4.3 03:53:59 44° WSW 03:55:11 49° WNW 04:01:23 10° N
SL-27 R/B 3.5 03:58:50 37° NNW 03:58:50 37° NNW 04:01:15 10° N
Cosmos 1328 Rocket 3.6 04:00:51 51° SSE 04:01:51 76° E 04:06:12 10° N
Cosmos 2061 Rocket 4.3 03:58:52 20° S 04:03:24 70° E 04:09:48 10° NNE
Cosmos 2221 4.2 04:07:30 20° NW 04:07:30 20° NW 04:10:00 10° NNW
MOS 1 Rocket 3.8 04:03:18 10° N 04:07:17 37° WNW 04:07:17 37° WNW
IRS-1D 4.3 04:05:10 10° N 04:09:47 34° WNW 04:10:29 33° W
Cosmos 2082 Rocket 3.2 04:07:33 16° S 04:11:33 41° ESE 04:16:49 10° NE
Cosmos 773 Rocket 3.9 04:10:42 38° SSW 04:12:48 90° WNW 04:18:08 10° NNE
Cosmos 2016 Rocket 4.2 04:09:12 14° S 04:14:26 66° E 04:20:28 10° NNE
Cosmos 1666 Rocket 4.0 04:10:25 10° NNW 04:14:34 43° W 04:14:34 43° W
ADEOS II 2.8 04:11:24 10° NNE 04:16:32 51° E 04:21:15 12° S
Cosmos 1315 Rocket 3.7 04:15:43 10° NNW 04:18:35 32° WNW 04:18:35 32° WNW
Cosmos 1726 3.5 04:22:35 25° WNW 04:22:35 25° WNW 04:25:11 10° NNW
Cosmos 1933 Rocket 3.6 04:19:01 10° N 04:23:30 82° E 04:27:55 10° S
PSLV R/B 3.0 04:25:14 69° S 04:25:14 69° S 04:28:26 10° ESE
ADEOS 4.5 04:22:19 10° N 04:26:54 32° WNW 04:28:18 28° W
COSMOS 2487 3.2 04:25:53 26° SSE 04:27:34 50° ESE 04:31:01 10° NNE
Cosmos 1725 Rocket 4.5 04:22:31 10° S 04:28:34 60° E 04:34:38 10° NNE
Meteor 2-3 Rocket 4.0 04:24:27 10° N 04:30:06 73° E 04:35:48 10° SSE
Cosmos 1151 Rocket 2.9 04:28:07 25° S 04:30:33 90° SE 04:34:51 10° N
Tiangong 2 1.4 04:30:19 47° S 04:30:38 50° SSE 04:33:46 10° E
Cosmos 2100 Rocket 4.1 04:29:51 24° SSW 04:33:43 58° W 04:40:01 10° N
Cosmos 1802 Rocket 3.9 04:29:14 19° SSW 04:33:51 73° W 04:40:10 10° N
PSLV R/B 4.3 04:31:51 10° NNE 04:35:59 65° ESE 04:39:31 14° S
CZ-2D R/B 4.4 04:37:31 10° N 04:40:58 28° WNW 04:41:45 26° W
Cosmos 2369 3.6 04:35:51 10° NNW 04:41:31 80° WSW 04:47:10 10° SSE
Cosmos 1656 3.8 04:35:59 10° NNW 04:41:44 80° ENE 04:47:25 10° SSE
Cosmos 1892 2.6 04:38:15 10° N 04:42:07 86° WSW 04:45:58 10° S
Okean O Rocket 2.3 04:38:00 10° NNE 04:42:21 54° E 04:46:39 10° S
UNKNOWN OBJECT B 4.1 04:39:49 10° NNW 04:43:08 24° WNW 04:43:54 23° W
Shenzhou-11 Module 1.9 04:43:41 43° WSW 04:44:35 82° SSE 04:47:41 10° ENE
In-Cosmos 22 Rocket 4.4 04:41:19 10° NNW 04:46:24 44° W 04:51:07 11° SSW
Cosmos 192 4.3 04:43:48 18° SSW 04:47:34 87° WNW 04:52:34 10° NNE
Lacrosse 5 1.9 04:43:21 10° NW 04:48:28 87° NE 04:53:33 10° SE
Cosmos 1825 4.3 04:48:52 10° NNE 04:52:15 30° ENE 04:55:38 10° SE
Tsikada Rocket 4.1 04:47:57 10° N 04:54:18 85° E 05:00:42 10° S
Hubble Space Telescope 2.7 04:53:56 14° SSW 04:54:45 15° S 04:57:03 10° SSE
Cosmos 1408 4.4 04:52:03 10° NNE 04:55:22 33° ENE 04:58:38 10° SE
Meteor 1-27 4.2 04:50:57 12° SSW 04:56:09 65° WNW 05:01:43 10° N
Cosmos 2173 Rocket 4.5 04:52:39 18° SW 04:57:01 41° WNW 05:03:01 10° N
ATLAS 2AS CENTAUR R/B 4.3 04:50:30 10° NNW 04:58:05 43° NE 05:05:10 10° ESE
CZ-4B R/B 3.1 04:56:55 10° N 05:01:24 75° WNW 05:05:55 10° SSW
NOSS 3-1 (A) 4.2 04:57:06 10° NW 05:04:35 53° WSW 05:12:44 10° S
OAO 2 Rocket 4.4 05:01:51 16° SW 05:05:04 31° SSE 05:09:26 10° ESE
Cosmos 1833 Rocket 2.7 05:01:07 13° SSW 05:06:15 71° WNW 05:11:55 10° NNE
Cosmos 1470 Rocket 4.5 05:03:27 10° NNW 05:07:06 27° W 05:10:11 13° SW
Resurs 1-4 Rocket 4.2 05:08:03 10° NW 05:08:25 10° WNW 05:08:47 10° WNW
Cosmos 923 Rocket 4.4 05:08:51 14° SW 05:13:07 44° WNW 05:18:09 10° N
ATLAS 5 CENTAUR R/B 4.5 05:12:47 10° SE 05:14:47 13° ESE 05:16:51 10° E
Cosmos 1980 Rocket 2.6 05:17:13 10° NNW 05:22:50 71° ENE 05:28:25 10° SSE
USA 234 4.1 05:21:40 10° ENE 05:27:58 48° SE 05:34:14 10° SSW
Cosmos 1869 Rocket 3.6 05:24:48 10° NNW 05:29:14 66° W 05:33:38 10° S
Cosmos 2278 4.4 05:25:24 10° NW 05:30:18 31° WSW 05:35:12 10° SSW
Cosmos 1680 Rocket 4.1 05:26:26 10° SW 05:31:24 40° WNW 05:36:26 10° N
IRS-1C Rocket 4.1 05:26:33 10° N 05:31:47 67° WNW 05:37:00 10° SSW
Timation 2 Rocket 4.0 05:25:58 10° SSW 05:31:57 85° ESE 05:38:09 10° NNE
Cosmos 1455 3.4 05:31:42 10° SW 05:34:49 24° WNW 05:37:56 10° NNW
Cosmos 2084 3.4 05:31:30 10° SW 05:35:31 62° NW 05:39:22 10° NNE
Cosmos 1697 Rocket 2.9 05:32:13 10° NNW 05:37:41 51° WSW 05:43:08 10° S
Meteor 1-28 Rocket 4.2 05:36:21 10° SSE 05:39:59 51° ENE 05:43:37 10° N
Cosmos 1900 4.5 05:35:38 10° SW 05:40:39 71° WNW 05:45:48 10° NNE
EO 1 Del DPAF 3.3 05:37:01 10° SSE 05:40:51 89° E 05:44:43 10° NNW
